This is the latest recevied weather packets stored in our database for station/object GBTWP-2. If no packets are shown the sender has not sent any weather packets the latest 10 day(s).
| Time | Temp. | Humidity | Pressure | Rain* | Wind** | Luminosity | Snow |
|---|---|---|---|---|---|---|---|
| 1777509602 | 7.22° C | 83% | 1014.9 hPa | 0 mm | - | 0 W/m² | - |
| 1777509302 | 7.22° C | 83% | 1014.6 hPa | 0 mm | - | 1 W/m² | - |
| 1777509002 | 7.22° C | 83% | 1014.7 hPa | 0 mm | - | 1 W/m² | - |
| 1777508402 | 7.22° C | 83% | 1014.6 hPa | 0 mm | - | 1 W/m² | - |
| 1777507802 | 7.78° C | 82% | 1014.4 hPa | 0 mm | - | 6 W/m² | - |
| 1777507502 | 7.78° C | 82% | 1014.6 hPa | 1.78 mm | - | 7 W/m² | - |
| 1777507202 | 7.78° C | 81% | 1014.4 hPa | 1.78 mm | - | 7 W/m² | - |
| 1777506902 | 7.78° C | 80% | 1014.5 hPa | 0 mm | - | 6 W/m² | - |
| 1777506602 | 7.78° C | 79% | 1014.3 hPa | 0 mm | - | 6 W/m² | - |
| 1777506302 | 7.78° C | 78% | 1014.4 hPa | 0 mm | - | 8 W/m² | - |
| 1777505402 | 7.78° C | 79% | 1014.2 hPa | 0 mm | - | 9 W/m² | - |
| 1777505102 | 8.33° C | 80% | 1014 hPa | 0 mm | - | 19 W/m² | - |
| 1777504802 | 8.33° C | 80% | 1014.2 hPa | 0 mm | - | 24 W/m² | - |
| 1777503902 | 8.33° C | 79% | 1014 hPa | 0 mm | - | 28 W/m² | - |
| 1777503602 | 8.33° C | 78% | 1014.2 hPa | 0 mm | - | 37 W/m² | - |
| 1777503002 | 8.33° C | 81% | 1014 hPa | 0 mm | - | 28 W/m² | - |
| 1777502702 | 8.33° C | 81% | 1014.2 hPa | 0 mm | - | 37 W/m² | - |
| 1777502402 | 8.89° C | 80% | 1014 hPa | 0 mm | - | 47 W/m² | - |
| 1777502101 | 8.89° C | 80% | 1014.1 hPa | 0 mm | - | 50 W/m² | - |
| 1777501802 | 8.89° C | 80% | 1014 hPa | 1.02 mm | - | 56 W/m² | - |
| 1777501202 | 8.89° C | 81% | 1014 hPa | 0 mm | - | 53 W/m² | - |
| 1777500902 | 8.89° C | 80% | 1014.1 hPa | 0 mm | - | 65 W/m² | - |
| 1777500602 | 8.89° C | 82% | 1013.8 hPa | 0 mm | - | 43 W/m² | - |
| 1777499702 | 8.89° C | 80% | 1013.8 hPa | 0 mm | - | 56 W/m² | - |
| 1777498802 | 8.89° C | 83% | 1013.8 hPa | 0 mm | - | 64 W/m² | - |
* Rain latest hour (hover to see other rain measurements)
** Current wind speed in m/s (hover to see current wind gust speed)